EW0362 Weather Reports


time (UTC)temp
C
wind
direction
speed
KPH
gust
KPH
rain 1hr
cm
rain 24hr
cm
rain mn
cm
humidity
%
barometer
mb
20260904144204 22 63 4.8 9.7 0.00 0.03 0.00 82 1009.4
20260904143705 22 54 1.6 8.0 0.00 0.03 0.00 85 1009.4
20260904143204 22 242 1.6 4.8 0.00 0.03 0.00 86 1009.5
20260904142204 21 67 1.6 4.8 0.00 0.03 0.00 90 1009.6
20260904141704 21 259 0.0 4.8 0.00 0.03 0.00 90 1009.6
20260904140204 21 240 3.2 8.0 0.00 0.03 0.00 93 1009.7
20260904135704 21 315 0.0 0.0 0.00 0.03 0.00 95 1009.7
20260904135205 20 313 0.0 4.8 0.00 0.03 0.00 96 1009.7
20260904133704 20 239 0.0 1.6 0.00 0.03 0.00 97 1009.7
20260904131204 19 128 0.0 1.6 0.00 0.03 0.00 98 1009.8
20260904130704 19 62 0.0 1.6 0.00 0.03 0.00 98 1009.9
20260904130204 19 62 0.0 1.6 0.00 0.03 0.00 98 1009.8
20260904125704 19 63 0.0 0.0 0.00 0.03 0.00 98 1009.9
20260904123704 19 63 0.0 0.0 0.00 0.03 0.00 99 1009.9
20260904122704 18 63 0.0 0.0 0.00 0.03 0.00 98 1009.9
20260904120204 18 63 0.0 3.2 0.00 0.03 0.00 98 1009.7
20260904113704 18 61 0.0 0.0 0.00 0.03 0.00 99 1009.9
20260904113204 18 61 0.0 0.0 0.00 0.03 0.00 98 1009.9
20260904112204 18 63 0.0 0.0 0.00 0.03 0.00 99 1009.8
20260904111704 18 63 0.0 0.0 0.00 0.03 0.00 99 1009.8
20260904111204 18 63 0.0 0.0 0.00 0.03 0.00 99 1009.8
20260904110704 18 63 0.0 0.0 0.00 0.03 0.00 98 1009.8
20260904110204 18 63 0.0 0.0 0.00 0.03 0.00 98 1009.7
20260904104204 18 63 0.0 0.0 0.00 0.03 0.00 99 1009.6
20260904103704 18 63 0.0 0.0 0.00 0.03 0.00 98 1009.4
20260904102704 18 63 0.0 0.0 0.00 0.03 0.00 98 1009.4
20260904101704 18 63 0.0 0.0 0.00 0.03 0.00 98 1009.5
20260904100704 18 65 0.0 0.0 0.00 0.03 0.00 98 1009.4
20260904100204 18 65 0.0 0.0 0.00 0.05 0.00 98 1009.3
20260904095704 18 65 0.0 0.0 0.00 0.05 0.00 98 1009.3
20260904094203 18 65 0.0 0.0 0.00 0.05 0.00 98 1009.4
20260904092204 18 65 0.0 0.0 0.00 0.08 0.00 98 1009.4
20260904090704 18 65 0.0 0.0 0.00 0.10 0.00 98 1009.3
20260904090204 18 65 0.0 0.0 0.00 0.10 0.00 98 1009.2
20260904085704 18 65 0.0 0.0 0.00 0.10 0.00 98 1009.3
20260904084203 18 65 0.0 0.0 0.00 0.10 0.00 98 1009.3
20260904083704 18 65 0.0 0.0 0.00 0.10 0.00 98 1009.2
20260904083203 18 65 0.0 0.0 0.00 0.10 0.00 98 1009.3
20260904082204 18 65 0.0 0.0 0.00 0.10 0.00 98 1009.5
20260904081204 18 65 0.0 0.0 0.00 0.13 0.00 98 1009.6
20260904075704 18 65 0.0 0.0 0.00 0.23 0.00 98 1009.7
20260904075203 18 65 0.0 0.0 0.00 0.23 0.00 98 1009.6
20260904074704 18 65 0.0 0.0 0.00 0.23 0.00 98 1009.6
20260904074204 18 65 0.0 0.0 0.00 0.23 0.00 98 1009.5
20260904073204 18 65 0.0 0.0 0.00 0.23 0.00 98 1009.5
20260904072704 18 65 0.0 0.0 0.00 0.23 0.00 98 1009.5
20260904071704 18 65 0.0 0.0 0.00 0.23 0.00 98 1009.7
20260904065704 18 65 0.0 0.0 0.00 0.23 0.00 98 1009.8
20260904065204 18 65 0.0 0.0 0.00 0.23 0.00 98 1009.9
20260904064703 18 65 0.0 0.0 0.00 0.23 0.00 98 1009.9
20260904063704 18 65 0.0 0.0 0.00 0.23 0.00 97 1009.9
20260904062203 18 65 0.0 0.0 0.00 0.23 0.00 97 1010.0
20260904061204 18 65 0.0 0.0 0.00 0.23 0.00 97 1010.2
20260904055704 18 65 0.0 0.0 0.00 0.23 0.00 97 1010.5
20260904055204 18 65 0.0 0.0 0.00 0.23 0.00 97 1010.5
20260904054703 18 65 0.0 0.0 0.00 0.23 0.00 97 1010.5
20260904054204 18 65 0.0 0.0 0.00 0.23 0.00 97 1010.5
20260904053703 18 65 0.0 0.0 0.00 0.23 0.00 97 1010.5
20260904053203 18 65 0.0 0.0 0.00 0.23 0.00 97 1010.6
20260904052704 19 65 0.0 0.0 0.00 0.23 0.00 97 1010.6
20260904051203 19 65 0.0 0.0 0.00 0.23 0.00 97 1010.9
20260904050204 19 65 0.0 0.0 0.00 0.23 0.00 97 1010.8
20260904045704 19 65 0.0 0.0 0.00 0.23 0.00 97 1010.7
20260904045204 19 65 0.0 0.0 0.00 0.23 0.00 97 1010.7
20260904044204 19 63 0.0 0.0 0.00 0.23 0.00 97 1010.8
20260904043703 19 63 0.0 0.0 0.00 0.23 0.00 97 1010.8
20260904042703 19 63 0.0 0.0 0.00 0.23 0.00 97 1011.0
20260904042204 19 63 0.0 0.0 0.00 0.23 0.00 97 1010.9
20260904035703 19 63 0.0 0.0 0.00 0.23 0.23 97 1011.2
20260904034703 19 63 0.0 1.6 0.00 0.23 0.23 97 1011.3
20260904032704 19 63 0.0 1.6 0.00 0.23 0.23 97 1011.3
20260904032203 19 61 0.0 0.0 0.00 0.23 0.23 97 1011.3
20260904031704 19 61 0.0 0.0 0.03 0.23 0.23 97 1011.4
20260904030204 19 61 0.0 1.6 0.03 0.23 0.23 96 1011.4
20260904025703 19 61 0.0 0.0 0.03 0.23 0.23 96 1011.4
20260904023203 19 61 0.0 0.0 0.03 0.23 0.23 96 1011.3
20260904022704 19 61 0.0 0.0 0.03 0.23 0.23 96 1011.4
20260904022204 19 61 0.0 0.0 0.03 0.23 0.23 96 1011.3
20260904020703 19 61 0.0 0.0 0.00 0.20 0.20 96 1011.4
20260904014203 19 61 0.0 0.0 0.00 0.20 0.20 95 1011.6
20260904012704 20 61 0.0 0.0 0.00 0.20 0.20 95 1011.7
20260904012204 20 61 0.0 0.0 0.00 0.20 0.20 95 1011.7
20260904011705 20 61 0.0 0.0 0.00 0.20 0.20 95 1011.7
20260904011204 20 61 0.0 0.0 0.00 0.20 0.20 95 1011.7
20260904010204 20 61 0.0 0.0 0.00 0.20 0.20 95 1011.6
20260904005204 20 61 0.0 0.0 0.00 0.20 0.20 95 1011.5
20260904004705 20 61 0.0 0.0 0.00 0.20 0.20 94 1011.4
20260904003704 20 61 0.0 0.0 0.00 0.20 0.20 94 1011.4
20260904002205 20 61 0.0 0.0 0.00 0.20 0.20 94 1011.2
20260904001704 20 61 0.0 0.0 0.00 0.20 0.20 94 1011.1
20260904000204 21 61 0.0 0.0 0.00 0.20 0.20 94 1010.8
20260903235705 21 61 0.0 0.0 0.00 0.20 0.20 93 1010.9
20260903233705 21 61 0.0 0.0 0.00 0.20 0.20 93 1010.8
20260903231704 21 61 0.0 0.0 0.00 0.20 0.20 93 1010.9
20260903230704 22 61 0.0 0.0 0.00 0.20 0.20 93 1011.1
20260903225205 22 61 0.0 0.0 0.00 0.20 0.20 93 1010.8
20260903224704 22 61 0.0 0.0 0.00 0.20 0.20 93 1010.8
20260903224204 22 61 0.0 0.0 0.00 0.20 0.20 92 1010.7
20260903223705 22 61 0.0 0.0 0.00 0.20 0.20 92 1010.6
20260903223204 22 61 0.0 0.0 0.00 0.20 0.20 92 1011.0
20260903221705 22 61 0.0 0.0 0.00 0.20 0.20 92 1011.3
20260903221204 22 61 0.0 0.0 0.00 0.20 0.20 92 1011.4
20260903220205 22 61 0.0 0.0 0.00 0.20 0.20 91 1011.3
20260903215705 22 61 0.0 0.0 0.00 0.20 0.20 92 1011.2
20260903215204 22 61 0.0 0.0 0.00 0.20 0.20 92 1011.3
20260903213705 23 61 0.0 0.0 0.00 0.20 0.20 91 1011.3
20260903213205 23 61 0.0 0.0 0.00 0.20 0.20 90 1011.3
20260903205704 23 61 0.0 3.2 0.00 0.20 0.20 87 1011.3
20260903205205 23 62 0.0 1.6 0.00 0.20 0.20 87 1011.3
20260903204204 23 63 0.0 0.0 0.00 0.20 0.20 88 1011.3
20260903203704 23 63 0.0 0.0 0.00 0.20 0.20 88 1011.3
20260903201704 23 66 0.0 1.6 0.00 0.20 0.20 87 1011.3
20260903201205 23 66 0.0 0.0 0.00 0.20 0.20 87 1011.5
20260903195704 22 66 0.0 3.2 0.00 0.20 0.20 87 1011.6
20260903195204 22 67 0.0 3.2 0.00 0.20 0.20 88 1011.8
20260903194704 22 67 0.0 1.6 0.00 0.20 0.20 88 1011.8
20260903192704 22 52 0.0 0.0 0.00 0.20 0.20 89 1012.0
20260903191204 22 53 0.0 1.6 0.00 0.20 0.20 88 1012.0
20260903190704 22 53 0.0 1.6 0.00 0.20 0.20 89 1012.1
20260903190204 22 51 0.0 0.0 0.00 0.20 0.20 88 1012.2
20260903185704 22 51 0.0 1.6 0.00 0.20 0.20 87 1012.3
20260903184705 21 131 0.0 0.0 0.00 0.20 0.20 90 1012.5
20260903184204 21 131 0.0 3.2 0.00 0.20 0.20 89 1012.6
20260903182704 21 90 0.0 3.2 0.00 0.20 0.20 89 1012.5
20260903180704 21 85 0.0 1.6 0.00 0.20 0.20 90 1012.7
20260903175705 21 85 0.0 1.6 0.00 0.20 0.20 91 1013.0
20260903173205 21 71 0.0 0.0 0.00 0.20 0.20 92 1013.2
20260903172204 21 71 0.0 0.0 0.00 0.20 0.20 91 1013.1
20260903170705 20 72 0.0 1.6 0.00 0.20 0.20 92 1012.9
20260903170205 20 70 0.0 1.6 0.00 0.20 0.20 91 1012.9
20260903163204 20 217 0.0 1.6 0.00 0.20 0.20 95 1013.0
20260903162704 20 217 0.0 0.0 0.00 0.20 0.20 94 1013.1
20260903161704 20 217 0.0 0.0 0.00 0.20 0.20 94 1013.1
20260903161204 20 217 0.0 1.6 0.00 0.20 0.20 94 1013.2
20260903160704 20 219 0.0 1.6 0.00 0.20 0.20 95 1013.3
20260903160204 20 69 0.0 1.6 0.00 0.20 0.20 96 1013.3
20260903155204 19 90 0.0 1.6 0.00 0.20 0.20 96 1013.0
20260903154704 19 93 0.0 1.6 0.00 0.20 0.20 97 1013.3
20260903153705 18 67 0.0 1.6 0.00 0.20 0.20 97 1013.5
20260903153204 18 53 0.0 1.6 0.00 0.20 0.20 96 1013.7
20260903152705 18 53 0.0 1.6 0.00 0.20 0.20 97 1013.7
20260903152205 18 53 0.0 1.6 0.00 0.20 0.20 97 1013.7
20260903150704 18 53 0.0 1.6 0.00 0.20 0.20 97 1013.8
20260903145204 18 53 0.0 0.0 0.00 0.20 0.20 97 1014.0